sat.trackr.live / text

‹ back to catalog

STARLINK-33798

NORAD 63449 · 2025-069S

PAYLOAD ACTIVE UNKNOWN

§ Identity

Operator
Country
US
Launch date
2025-04-04
Launch site
AFWTR
Launch vehicle
Mass (kg)
RCS (m²)

Purposes: comms

External: N2YO · Heavens-Above · Gunter

§ Orbital elements

Epoch: 2026-09-20T09:40:53.089536Z

Period
93.85 min
Inclination
53.1601°
Eccentricity
0.0001170
Mean motion
15.34405295 rev/d
Perigee alt
461.9 km
Apogee alt
463.5 km
Semi-major
6,840.8 km
B*
4.2949e-4
RAAN
310.4065°
Arg perigee
88.2237°
Mean anomaly
271.8900°
Rev number
8,305

§ Raw data

STARLINK-337981 63449U 25069S   26263.40339224  .00014165  00000+0  42949-3 0  99912 63449  53.1601 310.4065 0001170  88.2237 271.8900 15.34405295 83053

JSON: /api/v1/satellites/63449 · /tle

For live sub-satellite position, see the globe view (requires WebGL).

§ Visibility from observer

Set your observer location to see the next 7 days of passes ≥ 10°. The values pass through the URL so the page stays shareable.

No JS? Fill the form by hand. The geolocation button needs JavaScript.